Regional Weather Roundup
Issued by NWS Boston, MA

Current Version | Previous Version | Text Only | Print | Product List | Glossary On
Versions: 1 2 3 4 5 6 7 8 9 10 11 12 13 14 15 16 17 18 19 20 21 22 23 24 25 26 27 28 29 30 31 32 33 34 35 36 37 38 39 40 41 42 43 44 45 46 47 48 49 50
000 ASUS41 KBOX 020010 RWRBOX REGIONAL WEATHER ROUNDUP NATIONAL WEATHER SERVICE TAUNTON MA 800 PM EDT WED OCT 01 2014 NOTE: "FAIR" INDICATES FEW OR NO CLOUDS BELOW 12,000 FEET WITH NO SIGNIFICANT WEATHER AND/OR OBSTRUCTIONS TO VISIBILITY. THE FOLLOWING OBSERVATION LOCATIONS DO NOT REPORT PRESENT WEATHER...PROVINCETOWN... SMITHFIELD...BLOCK ISLAND...KEENE...AND OXFORD. MAZALL-020100- EASTERN MASSACHUSETTS CITY SKY/WX TMP DP RH WIND PRES REMARKS BOSTON LGT RAIN 57 56 96 NE20G25 30.08S FOG 6HR MIN TEMP: 56; 6HR MAX TEMP: 57; 6HR PCP: 0.23; BEVERLY LGT RAIN 57 54 89 NE15G23 30.09S LAWRENCE LGT RAIN 57 55 93 NE12 30.13R BEDFORD CLOUDY 56 54 93 NE13G20 30.09S BLUE HILL N/A 56 56 100 NE13G23 30.07R NORWOOD CLOUDY 58 56 93 NE12 30.07S MARSHFIELD NOT AVBL PLYMOUTH LGT RAIN 60 59 96 NE15G22 30.04R TAUNTON CLOUDY 60 58 92 NE5 30.05R NEW BEDFORD LGT RAIN 60 58 92 NE15G23 29.99F $$ MAZALL-020100- CAPE COD AND THE ISLANDS CITY SKY/WX TMP DP RH WIND PRES REMARKS FALMOUTH N/A 59 59 100 NE23G37 30.00S HYANNIS HVY RAIN 61 59 93 NE15G24 30.00F FOG CHATHAM LGT RAIN 60 59 96 NE9G17 30.05S FOG PROVINCETOWN CLOUDY 61 57 88 NE16G22 30.06S NANTUCKET RAIN 61 59 93 NE17 30.01S MARTHAS VNYRD CLOUDY 61 59 93 NE26G39 29.97F $$ MAZALL-020100- CENTRAL AND WESTERN MASSACHUSETTS CITY SKY/WX TMP DP RH WIND PRES REMARKS WORCESTER LGT RAIN 54 53 97 NE13 30.11R FOG 6HR MIN TEMP: 54; 6HR MAX TEMP: 55; 6HR PCP: 0.04; FITCHBURG CLOUDY 57 54 89 N6 30.13S FOG ORANGE CLOUDY 57 55 93 N6 30.12S SPRINGFIELD CLOUDY 59 55 85 NE9 30.10R WESTFIELD CLOUDY 59 56 89 N5 30.11R FOG NORTH ADAMS CLOUDY 59 57 93 CALM 30.12R PITTSFIELD LGT RAIN 56 55 97 NE3 30.11R $$ RIZALL-020100- RHODE ISLAND CITY SKY/WX TMP DP RH WIND PRES REMARKS PROVIDENCE LGT RAIN 58 56 93 N15 30.06R 6HR MIN TEMP: 58; 6HR MAX TEMP: 60; 6HR PCP: 0.04; NEWPORT LGT RAIN 60 57 89 N12 30.03R BLOCK ISLAND CLOUDY 61 55 82 N13G18 30.03R SMITHFIELD CLOUDY 55 48 76 N10G17 30.06S WESTERLY CLOUDY 58 56 93 N12 30.04S $$ CTZALL-020100- CONNECTICUT CITY SKY/WX TMP DP RH WIND PRES REMARKS BRADLEY INTL CLOUDY 60 55 83 N7 30.09R 6HR MIN TEMP: 60; 6HR MAX TEMP: 63; 6HR PCP: 0.01; HARTFORD CLOUDY 59 56 89 N9 30.08R BRIDGEPORT LGT RAIN 60 58 92 NE10 30.07R FOG DANBURY LGT RAIN 59 56 89 NE7 30.10R FOG GROTON CLOUDY 57 56 96 N14 30.04R NEW HAVEN CLOUDY 62 58 86 N10 30.06R CHESTER NOT AVBL MERIDEN CLOUDY 59 56 89 N7 30.07S WILLIMANTIC CLOUDY 58 54 86 N10 30.07S OXFORD CLOUDY 57 52 82 NE9 30.09S FOG $$ MEZ002-015-021-024-NHZ003-005-008-011-012-014-VTZ005-008-020100- NORTHERN NEW ENGLAND CITY SKY/WX TMP DP RH WIND PRES REMARKS PORTLAND ME CLOUDY 58 52 80 NE9 30.16R 6HR MIN TEMP: 58; 6HR MAX TEMP: 60; 6HR PCP: TRACE; BANGOR ME CLOUDY 57 49 74 NE9 30.20R CONCORD NH LGT RAIN 56 55 97 CALM 30.14S FOG MANCHESTER NH LGT RAIN 57 54 89 N8 30.12R FOG NASHUA NH LGT RAIN 57 55 94 N5 30.14S FOG PORTSMOUTH NH CLOUDY 57 55 93 NE7 30.12S FOG JAFFREY NH LGT RAIN 55 54 96 VRB3 30.14S FOG KEENE NH CLOUDY 57 48 72 N5 30.14S BURLINGTON VT CLOUDY 58 54 86 NW3 30.16R MT. WASHINGTON CLOUDY 45 41 87 SE3 N/A $$ NYZ052-076-020100- EASTERN NEW YORK CITY SKY/WX TMP DP RH WIND PRES REMARKS ALBANY CLOUDY 62 58 86 NE3 30.12R 6HR MIN TEMP: 62; 6HR MAX TEMP: 64; 6HR PCP: TRACE; NEW YORK CITY CLOUDY 65 56 72 NE12 30.06R 6HR MIN TEMP: 63; 6HR MAX TEMP: 66; 6HR PCP: TRACE; $$ ANZALL-020100- MARINE OBSERVATIONS STATION/POSITION TIME TEMP WIND PRES VSBY WAVE AIR SEA DIR/SP/G HT/PER (UTC) (F) (DEG/KT/KT) (MB) (MI) (FT/S) BOSTON BUOY 2350 58 60 50/ 21/ 25 1017.8S 7/ 7 BUZZARDS BAY 2300 40/ 22/ 24 1016.2F NANTUCKET SOUND 2350 61 64 40/ 21/ 25 1015.6F 3/ 4 MASS BAY-STELLWA NOT AVBL ISLE OF SHOALS 2300 57 50/ 23/ 25 1018.6R S OF BLOCK IS NOT AVBL $$ ......................KEY......................... SKY/WX - SKY CONDITION/PRESENT WEATHER TMP - TEMPERATURE IN FAHRENHEIT DWPT - DEWPOINT IN FAHRENHEIT RH - RELATIVE HUMIDITY IN PERCENT WIND - DIRECTION AND SPEED IN MPH PRES - MEAN SEA LEVEL PRESSURE IN INCHES OF HG WCI - WIND CHILL INDEX VSB - VISIBILITY IN MILES HX - HEAT INDEX TC - TEMPERATURE IN CELSIUS VRB - VARIABLE WIND DIRECTION N/A - NOT AVAILABLE

USA.gov is the U.S. government's official web portal to all federal, state and local government web resources and services.